Wetbulb
69.88 69.73 70.17 70.24 70.96 71.42 71.55 71.38 72.11 73.30 75.17 75.88 76.66 76.98 77.39 78.01 77.78 79.37 78.23 76.67 74.76 74.58 73.84 72.12 72.33 73.13 72.11 70.15 70.30 70.29 70.45 69.90 71.05
68.64 69.55 70.27 70.48 71.23 71.37 71.35 71.91 72.48 73.88 75.63 76.24 76.69 76.88 77.63 77.38 77.59 76.74 75.97 75.31 74.14 73.04 72.95 71.05 71.19 70.56 70.19 69.19 69.31 69.57 69.90 68.69 68.82
68.65 69.95 70.49 70.98 70.97 70.99 71.89 72.54 73.41 74.83 76.60 76.31 76.22 76.73 76.91 76.81 76.41 75.39 74.01 73.03 71.70 70.44 69.92 70.62 70.49 70.19 70.39 70.42 69.32 70.47 70.22 69.35 69.78
68.69 69.77 70.62 71.11 71.27 71.63 72.19 72.83 73.64 74.83 74.80 74.93 75.50 76.42 76.54 76.17 74.64 73.27 72.29 70.70 70.20 69.36 68.96 69.38 69.17 69.52 69.41 69.56 68.88 68.35 68.16 68.12 67.95
69.23 70.72 71.22 71.55 71.82 72.33 72.46 72.88 73.73 73.91 72.12 72.51 74.51 75.23 74.89 73.94 72.71 71.57 70.06 69.25 69.04 68.96 68.65 69.90 69.95 69.88 69.10 68.58 69.06 68.70 67.14 65.86 66.45
70.03 70.81 71.45 71.74 71.77 72.27 72.74 73.40 73.93 74.12 73.50 74.66 74.55 74.69 73.42 72.14 70.85 69.20 68.85 68.58 68.09 68.49 68.95 69.11 69.58 69.39 69.21 68.76 68.23 67.16 68.27 68.35 68.10
70.47 71.18 71.68 71.95 71.96 72.48 73.21 73.87 74.46 74.81 74.87 74.39 73.40 73.19 72.04 70.35 68.89 68.71 68.19 68.13 67.53 68.27 68.52 68.58 68.55 68.46 68.52 68.28 68.28 67.57 66.46 66.80 66.90
70.24 70.91 71.53 72.11 72.44 73.53 74.27 74.65 75.37 74.65 73.21 72.33 72.36 72.18 70.36 69.11 69.41 68.93 67.99 67.47 66.53 67.31 67.63 68.27 67.53 67.69 67.53 67.87 67.00 66.46 66.88 66.21 65.04
69.85 70.87 71.75 72.63 73.34 74.33 74.67 75.10 75.08 73.67 72.62 71.94 72.37 71.10 68.90 69.54 69.06 68.12 67.37 66.78 66.04 66.52 66.75 66.89 66.99 66.69 66.99 66.46 66.22 61.15 61.26 62.57 65.59
69.43 71.11 71.97 72.97 73.60 74.27 75.10 75.12 75.11 73.37 72.41 72.00 71.05 69.42 69.16 69.06 68.42 67.76 67.29 66.26 65.61 66.22 65.83 66.53 65.85 66.18 66.91 66.61 67.15 61.21 60.72 61.09 65.27
69.60 71.80 72.66 73.63 74.24 74.74 75.49 75.35 74.50 73.61 71.62 70.69 69.74 68.95 68.62 68.73 68.23 67.71 67.30 65.66 65.10 65.55 65.75 65.61 65.30 64.73 66.15 66.15 65.46 61.04 59.68 59.86 65.07
70.85 72.65 73.90 74.54 75.22 75.35 75.34 74.46 73.67 71.33 69.58 69.48 68.59 68.08 68.48 68.41 68.18 67.67 67.11 65.32 64.82 65.21 65.15 65.37 64.91 64.38 65.13 65.91 66.25 60.97 58.46 59.04 64.83
71.58 73.27 74.47 74.61 74.61 74.77 73.67 72.52 71.12 69.71 68.71 67.77 67.48 68.19 68.46 68.78 68.39 67.76 66.66 65.80 65.57 65.56 65.47 64.71 63.74 65.20 65.75 63.24 65.22 59.01 55.46 56.01 63.15
72.29 73.26 73.81 74.15 73.48 73.06 72.91 71.68 70.52 68.36 67.90 66.91 68.32 69.09 69.27 68.90 68.63 67.81 67.54 66.55 65.86 65.30 65.20 65.22 64.41 64.24 64.37 63.52 62.76 63.00 52.80 51.92 60.79
70.72 71.39 71.59 72.45 72.76 71.83 71.03 70.29 68.91 67.93 67.44 69.25 69.46 69.11 68.49 68.28 68.06 67.21 66.27 65.57 65.50 65.55 64.83 63.97 63.81 63.97 63.63 62.48 63.39 56.52 53.49 51.42 51.07
69.35 70.15 70.87 71.67 71.11 70.25 69.55 69.20 68.99 67.93 68.47 68.54 68.39 68.37 68.33 68.04 67.91 67.26 65.97 65.17 64.64 63.51 63.80 62.26 62.31 62.09 62.04 61.08 61.05 61.47 53.34 52.57 52.05
69.56 70.23 69.34 70.28 70.20 68.95 65.81 67.37 69.20 68.43 67.82 68.96 68.21 67.98 67.89 67.32 66.89 65.79 65.67 64.69 63.84 62.73 61.64 61.53 61.59 61.18 60.73 60.92 61.12 61.02 60.84 59.53 58.36
70.00 70.18 69.94 69.22 68.37 68.04 67.64 67.38 67.79 69.21 69.14 69.00 68.18 68.10 67.20 66.58 65.81 64.79 64.33 64.54 62.83 62.52 63.96 61.51 61.82 61.76 61.70 60.55 60.06 60.49 56.87 54.71 58.29
69.88 69.23 69.75 69.70 69.66 69.28 69.00 68.89 68.54 68.97 69.58 69.26 68.15 66.41 65.70 64.96 64.04 62.97 62.21 61.64 62.33 54.82 53.89 51.67 50.48 49.60 54.50 61.43 54.85 49.18 46.56 44.94 45.00
65.67 69.71 69.41 69.17 68.80 68.69 68.22 68.95 68.58 69.57 68.79 68.17 66.77 65.12 65.66 64.10 59.96 61.94 61.73 61.29 60.63 59.45 58.13 50.78 48.49 46.73 46.51 47.21 50.36 46.34 44.11 42.62 43.07
MSLP
1004.07 1004.77 1005.79 1006.70 1007.58 1008.67 1009.45 1010.17 1010.86 1011.41 1011.90 1012.33 1012.79 1013.20 1013.52 1013.89 1014.24 1014.31 1014.49 1014.87 1015.27 1015.34 1015.58 1016.00 1016.27 1016.23 1016.17 1016.29 1016.01 1015.88 1015.85 1015.59 1015.32
1003.89 1004.57 1005.71 1006.60 1007.61 1008.52 1009.30 1010.06 1010.79 1011.31 1011.91 1012.20 1012.44 1012.77 1013.43 1013.81 1014.15 1014.32 1014.82 1015.33 1015.62 1015.75 1016.33 1016.46 1016.42 1016.26 1016.42 1016.40 1016.27 1015.95 1015.93 1015.52 1015.73
1003.46 1004.35 1005.43 1006.43 1007.37 1008.22 1009.04 1009.78 1010.71 1011.26 1011.88 1012.27 1012.48 1012.77 1013.22 1013.70 1014.21 1014.77 1015.14 1015.48 1015.72 1016.10 1016.48 1016.69 1016.71 1016.71 1016.74 1016.70 1016.66 1016.36 1016.24 1016.01 1016.04
1002.99 1004.10 1005.02 1005.99 1006.91 1007.96 1008.76 1009.53 1010.47 1011.16 1011.82 1012.01 1012.25 1012.63 1013.26 1013.80 1014.38 1014.91 1015.20 1015.55 1015.82 1016.14 1016.36 1016.62 1016.59 1016.65 1016.71 1016.95 1016.86 1016.89 1016.71 1016.52 1016.45
1002.71 1003.86 1004.88 1005.77 1006.58 1007.53 1008.35 1009.31 1010.19 1011.10 1011.83 1012.20 1012.54 1013.29 1013.77 1014.23 1014.63 1014.84 1015.29 1015.64 1015.99 1016.39 1016.53 1016.79 1016.89 1016.99 1017.08 1016.87 1016.79 1016.80 1016.76 1016.52 1016.40
1002.97 1003.79 1004.79 1005.58 1006.43 1007.34 1008.20 1009.01 1009.66 1010.51 1011.39 1011.90 1012.64 1013.34 1013.92 1014.62 1014.96 1015.08 1015.49 1015.81 1016.24 1016.59 1016.77 1016.91 1016.92 1017.18 1017.22 1017.31 1017.15 1017.21 1016.97 1016.75 1016.47
1002.89 1003.80 1004.76 1005.37 1006.23 1007.20 1008.19 1008.96 1009.79 1010.67 1011.30 1012.16 1012.76 1013.22 1013.83 1014.50 1014.89 1015.26 1015.58 1016.10 1016.47 1016.77 1016.91 1017.09 1016.98 1017.04 1017.07 1017.18 1017.16 1017.38 1017.37 1017.18 1016.83
1002.73 1003.65 1004.58 1005.34 1005.91 1006.84 1007.98 1008.90 1009.82 1010.74 1011.54 1012.32 1012.83 1013.48 1014.11 1014.54 1015.11 1015.50 1015.96 1016.25 1016.63 1016.80 1016.93 1016.98 1017.27 1017.14 1017.29 1017.24 1016.97 1016.82 1017.31 1017.28 1017.08
1002.29 1002.99 1003.95 1004.87 1005.68 1006.83 1007.71 1008.63 1009.61 1010.63 1011.38 1012.06 1012.67 1013.40 1013.94 1014.71 1015.24 1015.46 1015.73 1016.21 1016.60 1016.78 1017.00 1017.22 1017.27 1017.04 1017.12 1017.11 1016.62 1017.69 1018.11 1017.85 1017.10
1001.75 1002.43 1003.32 1004.34 1005.23 1006.38 1007.37 1008.35 1009.25 1010.26 1011.45 1012.27 1012.92 1013.38 1013.94 1014.63 1015.17 1015.51 1015.91 1016.39 1016.60 1016.81 1017.01 1017.14 1017.05 1017.05 1016.90 1016.55 1016.92 1017.99 1018.31 1018.10 1017.06
1001.29 1002.00 1002.97 1004.00 1004.91 1006.03 1007.30 1008.36 1009.50 1010.38 1011.44 1012.24 1012.79 1013.22 1013.58 1014.39 1014.89 1015.37 1016.06 1016.50 1016.47 1016.67 1016.76 1016.80 1016.90 1016.91 1016.77 1016.76 1016.87 1017.59 1018.13 1018.12 1017.34
1001.27 1001.89 1002.92 1003.95 1004.90 1006.07 1007.49 1008.60 1009.65 1010.80 1011.62 1012.25 1012.74 1013.64 1013.90 1014.22 1014.83 1015.13 1015.80 1016.10 1016.32 1016.53 1016.58 1016.54 1016.52 1016.60 1016.54 1016.74 1016.63 1017.43 1017.92 1017.80 1016.64
1001.75 1002.41 1003.38 1004.33 1005.23 1006.39 1007.86 1009.19 1010.20 1010.84 1011.51 1012.32 1012.68 1013.34 1013.81 1014.44 1014.91 1015.30 1015.80 1015.96 1016.34 1016.46 1016.52 1016.29 1016.26 1016.25 1016.34 1016.72 1016.76 1017.31 1017.73 1017.78 1016.40
1002.70 1003.35 1004.30 1005.16 1005.92 1006.62 1007.82 1009.21 1009.98 1010.90 1011.53 1012.24 1012.66 1013.13 1013.70 1014.36 1014.85 1015.30 1015.61 1015.92 1016.20 1016.25 1016.25 1016.18 1016.33 1016.07 1016.22 1016.52 1016.46 1016.78 1017.63 1017.52 1016.88
1003.83 1004.63 1005.43 1005.99 1006.39 1007.44 1008.69 1009.43 1010.19 1010.89 1011.63 1012.13 1012.70 1013.34 1013.70 1014.26 1014.76 1015.17 1015.40 1015.85 1015.81 1015.95 1015.98 1015.98 1015.93 1015.86 1015.83 1015.43 1016.12 1016.73 1017.09 1017.08 1017.18
1004.71 1005.40 1005.86 1006.54 1007.32 1008.31 1009.28 1009.97 1010.22 1010.66 1011.62 1012.58 1013.00 1013.45 1013.86 1014.36 1014.72 1015.01 1015.34 1015.59 1015.56 1015.39 1015.66 1015.31 1015.04 1014.84 1014.75 1014.71 1015.17 1015.71 1016.27 1016.61 1016.94
1005.46 1006.20 1006.21 1006.57 1007.55 1008.35 1009.64 1010.10 1010.84 1011.71 1011.73 1012.09 1013.14 1013.72 1013.91 1014.29 1014.65 1014.86 1014.97 1014.91 1014.72 1014.82 1014.55 1014.62 1014.53 1014.49 1014.39 1014.25 1014.58 1014.91 1015.15 1015.75 1016.29
1005.12 1006.63 1006.38 1007.05 1007.94 1008.63 1009.57 1010.16 1010.48 1011.23 1011.92 1012.21 1012.83 1013.39 1013.69 1013.99 1014.11 1014.43 1014.17 1014.51 1014.11 1014.08 1014.27 1014.26 1014.42 1014.31 1014.17 1014.21 1014.21 1014.48 1015.00 1015.47 1015.59
1006.49 1006.58 1007.14 1007.80 1008.46 1009.35 1009.91 1010.21 1011.11 1011.68 1011.94 1012.29 1012.60 1013.11 1013.38 1013.23 1013.27 1013.43 1013.59 1013.65 1013.76 1014.30 1014.49 1014.62 1014.99 1014.99 1015.17 1014.54 1014.72 1015.13 1015.41 1015.78 1016.02
1007.97 1007.66 1007.96 1008.21 1008.69 1009.38 1010.22 1010.79 1011.46 1011.87 1011.98 1012.33 1012.84 1012.78 1012.91 1013.11 1013.62 1013.29 1013.25 1013.30 1013.38 1013.27 1013.68 1013.87 1014.20 1014.35 1014.46 1014.82 1014.84 1015.12 1015.29 1015.65 1015.85
Wind_Speed
11 13 13 14 15 13 14 14 12 11 12 12 11 9 8 6 5 3 3 4 4 3 2 3 2 2 2 2 4 4 4 5 5
14 14 14 15 14 14 14 13 12 12 11 11 11 11 8 6 6 4 7 7 4 4 2 4 2 2 1 1 2 3 4 3 5
16 15 16 15 15 15 14 14 12 11 11 10 9 10 9 8 8 7 7 6 6 5 4 2 1 1 1 1 1 2 3 2 2
17 17 16 16 15 15 14 13 13 12 10 12 10 9 9 9 9 8 7 6 6 5 5 4 4 3 4 3 2 1 3 4 3
16 17 16 16 15 16 15 14 13 14 11 11 9 9 9 9 8 7 7 6 6 4 3 2 2 3 3 3 2 1 3 4 3
14 16 17 17 16 15 14 14 13 13 12 10 11 11 10 8 7 6 6 6 5 3 2 1 1 3 3 2 2 3 2 1 1
17 16 16 16 16 15 13 13 12 11 11 11 10 10 10 9 7 6 6 6 4 1 1 2 2 3 3 3 2 2 4 3 3
18 17 17 16 16 14 14 13 12 13 11 11 11 10 9 8 7 7 6 5 3 3 3 2 4 3 4 3 4 1 2 2 4
20 21 19 17 16 15 15 15 14 13 13 13 12 11 10 9 7 7 7 5 4 4 3 3 4 4 5 5 5 8 3 9 3
21 21 20 19 18 17 15 15 15 14 13 12 11 11 10 9 8 6 5 4 3 3 4 3 4 5 5 5 3 6 3 6 6
20 21 20 18 16 16 15 14 13 13 14 12 12 11 11 9 8 6 5 4 4 4 4 4 4 5 6 4 3 9 5 7 8
16 18 17 16 15 15 14 13 14 14 13 12 12 10 9 8 7 6 6 5 4 5 5 5 4 4 5 6 5 9 6 7 7
10 12 12 13 14 15 14 14 14 14 14 12 12 10 8 8 7 5 4 4 4 4 4 4 5 3 3 1 7 8 4 7 7
6 9 11 12 14 14 14 13 13 12 12 11 10 10 10 8 7 7 6 5 5 5 5 4 5 4 4 5 2 6 5 3 7
8 11 13 13 13 12 12 13 12 12 11 10 10 9 8 8 7 6 5 6 5 5 5 6 6 5 7 6 4 4 9 6 4
11 12 11 11 13 14 11 11 12 13 11 9 9 9 8 6 7 6 5 5 5 5 6 7 6 6 6 4 4 5 11 9 7
12 11 13 14 12 14 9 9 9 7 9 11 9 7 6 6 7 6 5 6 6 6 5 6 5 5 5 4 4 4 3 5 8
14 10 11 10 10 10 12 11 11 9 10 10 8 6 6 7 7 7 5 7 6 6 7 5 5 5 5 5 5 1 3 2 3
8 10 11 11 12 11 11 12 10 9 9 8 6 6 6 5 4 4 5 5 6 12 12 7 7 9 7 9 3 8 6 6 5
8 10 11 12 13 14 12 10 8 7 7 6 7 6 2 2 4 4 4 4 5 6 8 11 12 13 11 12 15 1 5 7 7
Wind_Direction
152 161 158 168 173 176 176 181 179 175 169 159 167 175 180 186 181 217 135 88 127 116 104 70 75 92 108 331 316 306 312 284 315
165 159 157 162 167 169 173 175 172 177 175 168 168 155 154 157 138 130 82 98 120 101 137 139 111 111 93 63 329 324 325 316 309
171 161 160 163 172 171 173 171 168 172 155 160 157 154 149 142 124 124 123 125 99 96 111 63 96 96 123 103 46 18 311 293 45
173 171 168 168 174 173 175 169 164 161 166 156 161 149 132 137 133 134 144 135 121 118 118 149 156 169 154 157 135 350 321 317 291
171 173 172 173 176 175 175 173 169 158 150 172 171 136 139 141 141 145 130 113 97 85 96 158 171 177 187 178 178 305 306 288 318
166 172 174 174 177 179 179 177 173 171 177 156 147 146 143 147 142 136 111 104 88 85 96 54 138 191 209 257 333 325 313 290 244
172 176 177 177 178 179 178 173 167 169 169 150 148 149 149 147 146 123 103 95 85 64 93 217 196 221 212 253 305 343 347 353 349
176 180 181 178 176 171 176 174 166 163 152 155 154 151 150 145 131 119 113 106 117 155 194 184 262 238 246 241 242 152 350 324 350
187 183 185 177 171 170 172 169 164 162 159 157 157 154 152 138 143 138 131 139 156 165 185 209 223 231 238 249 267 92 327 310 316
197 189 182 179 174 174 174 173 169 165 158 156 153 155 144 149 152 144 142 148 152 181 206 225 232 255 264 217 227 148 229 281 293
205 189 183 179 177 171 170 164 163 151 152 163 162 161 151 160 156 147 150 180 191 195 215 228 254 266 255 258 174 161 214 261 272
206 188 182 181 176 165 158 159 152 153 157 163 158 163 161 155 163 157 180 196 208 230 230 226 242 261 250 256 245 162 207 257 279
189 181 176 171 165 150 152 153 156 157 158 165 163 163 157 159 167 170 204 226 228 225 238 244 273 235 256 330 273 151 192 273 287
169 159 158 159 155 154 148 154 157 160 158 170 161 160 159 163 159 183 208 207 215 217 228 276 248 237 251 263 298 144 188 264 285
143 145 141 155 151 134 141 153 156 162 171 157 156 159 157 163 175 211 180 211 203 224 237 238 245 246 251 194 216 212 190 210 276
133 140 134 139 138 135 146 164 164 162 153 157 157 164 165 182 189 195 205 223 226 228 219 260 230 237 245 240 197 201 180 192 226
124 133 128 126 135 132 130 144 149 168 152 152 161 175 170 188 199 200 218 227 219 242 247 241 246 248 252 256 238 232 220 201 197
118 137 119 107 119 122 129 139 143 156 156 155 168 183 193 197 210 200 222 234 262 246 243 281 277 262 269 273 268 287 83 313 272
118 104 106 106 106 114 123 126 131 145 150 162 175 192 201 215 240 227 231 253 234 211 245 241 249 262 260 279 256 147 165 210 219
100 118 125 125 122 124 124 126 130 144 141 160 191 232 173 219 259 264 252 251 263 278 207 230 226 232 232 224 262 169 229 210 205